Regional Weather Roundup
Issued by NWS

Home | Current Version | Previous Version | Text Only | Print | Product List | Glossary Off
Versions: 1 2 3 4 5 6 7 8 9 10 11 12 13 14 15 16 17 18 19 20 21 22 23 24 25 26 27 28 29 30 31 32 33 34 35 36 37 38 39 40 41 42 43 44 45 46 47 48 49 50

000
ASUS43 KLSX 260410
RWRMO

WEATHER SUMMARY FOR MISSOURI
NATIONAL WEATHER SERVICE SPRINGFIELD MO
1100 PM CDT MON JUL 25 2016

NOTE: "FAIR" INDICATES FEW OR NO CLOUDS BELOW 12,000 FEET WITH NO
       SIGNIFICANT WEATHER AND/OR OBSTRUCTIONS TO VISIBILITY.
       CURRENT SKY AND/OR WEATHER CONDITIONS ARE NOT AVAILABLE FOR
       CHILLICOTHE AND FARMINGTON.

MOZ001>031-035>038-043-044-053-054-260500-
...NORTHERN AND WESTERN MISSOURI...

CITY           SKY/WX    TMP DP  RH WIND       PRES   REMARKS
KANSAS CTY INT CLOUDY    79  66  64 E5        30.07S
KANSAS C DTWN  CLOUDY    79  67  66 E5        30.05S
LEE`S SUMMIT   CLOUDY    78  70  76 E3        30.07S
ST JOSEPH      CLEAR     72  68  87 CALM      30.07S
CHILLICOTHE      N/A     74  70  87 CALM      30.08R
KIRKSVILLE     PTCLDY    68  66  93 CALM      30.08R

$$
MOZ066>068-077>081-088>096-101>105-260500-
...SOUTHWEST MISSOURI...

CITY           SKY/WX    TMP DP  RH WIND       PRES   REMARKS
SPRINGFIELD    CLEAR     76  71  85 E5        30.06R
JOPLIN         PTCLDY    75  74  96 NE5       30.03F
BRANSON        MOCLDY    75  72  88 CALM      30.06S

$$
MOZ032>034-039>042-045>050-055>058-069>072-260500-
...CENTRAL MISSOURI...

CITY           SKY/WX    TMP DP  RH WIND       PRES   REMARKS
COLUMBIA       CLEAR     73  71  93 N3        30.06R
JEFFERSON CITY CLEAR     74  70  87 CALM      30.04R
ROLLA          MOCLDY    74  71  91 NE5       30.05R
SEDALIA        PTCLDY    73  70  90 CALM      30.07S
WHITEMAN AFB   CLOUDY    74  74 100 CALM      30.05R
OSAGE BEACH    PTCLDY    74  72  93 CALM      30.06R

$$
MOZ051-052-059>065-260500-
...EAST CENTRAL MISSOURI...

CITY           SKY/WX    TMP DP  RH WIND       PRES   REMARKS
ST LOUIS INTL  NOT AVBL
SPIRIT OF STL  PTCLDY    76  75  97 S3        30.01R
ST CHARLES     PTCLDY    78  76  93 NW3       30.00S

$$
MOZ072>076-082>087-097>100-106>115-260500-
...SOUTH CENTRAL AND SOUTHEAST MISSOURI...

CITY           SKY/WX    TMP DP  RH WIND       PRES   REMARKS
CAPE GIRARDEAU PTCLDY    76  75  97 SW3       30.00R
FARMINGTON     CLOUDY    79  73  82 SW3       30.04S
POPLAR BLUFF   CLOUDY    77  75  93 CALM      30.00S
WEST PLAINS    CLOUDY    78  72  81 CALM      30.07R

$$




USA.gov is the U.S. government's official web portal to all federal, state and local government web resources and services.